DW9346 Weather Reports


time (UTC)temp
C
wind
direction
speed
KPH
gust
KPH
rain 1hr
cm
rain 24hr
cm
rain mn
cm
humidity
%
barometer
mb
20200221012204 8 272 0.0 0.0 0.00 0.00 0.00 56 1021.9
20200221011704 8 272 0.0 0.0 0.00 0.00 0.00 59 1021.9
20200221011204 8 244 0.0 0.0 0.00 0.00 0.00 57 1021.9
20200221010704 8 244 0.0 0.0 0.00 0.00 0.00 54 1021.9
20200221010204 8 243 0.0 0.0 0.00 0.00 0.00 54 1021.9
20200221005704 8 243 0.0 0.0 0.00 0.00 0.00 58 1021.9
20200221005204 8 163 0.0 0.0 0.00 0.00 0.00 56 1021.9
20200221004704 9 163 0.0 0.0 0.00 0.00 0.00 54 1021.9
20200221004204 9 163 0.0 0.0 0.00 0.00 0.00 54 1022.0
20200221003704 9 163 0.0 0.0 0.00 0.00 0.00 54 1022.0
20200221003205 9 163 0.0 0.0 0.00 0.00 0.00 54 1022.0
20200221002704 9 163 0.0 0.0 0.00 0.00 0.00 53 1022.0
20200221002204 9 163 0.0 0.0 0.00 0.00 0.00 52 1022.1
20200221001704 10 163 0.0 0.0 0.00 0.00 0.00 53 1022.1
20200221001204 10 163 0.0 0.0 0.00 0.00 0.00 54 1022.1
20200221000704 10 163 0.0 0.0 0.00 0.00 0.00 52 1022.2
20200221000204 9 163 0.0 1.6 0.00 0.00 0.00 54 1022.3
20200220235704 9 163 0.0 4.8 0.00 0.00 0.00 56 1022.3
20200220235203 9 163 0.0 4.8 0.00 0.00 0.00 55 1022.3
20200220234704 9 163 1.6 4.8 0.00 0.00 0.00 54 1022.3
20200220234204 9 163 0.0 3.2 0.00 0.00 0.00 59 1022.3
20200220233704 9 163 0.0 1.6 0.00 0.00 0.00 60 1022.3
20200220233204 9 163 0.0 4.8 0.00 0.00 0.00 62 1022.4
20200220232703 10 163 1.6 4.8 0.00 0.00 0.00 63 1022.4
20200220232204 10 163 1.6 4.8 0.00 0.00 0.00 65 1022.4
20200220231704 10 163 0.0 3.2 0.00 0.00 0.00 70 1022.4
20200220231204 10 163 0.0 3.2 0.00 0.00 0.00 73 1022.3
20200220230703 10 163 0.0 3.2 0.00 0.00 0.00 75 1022.3
20200220230204 10 163 0.0 3.2 0.00 0.00 0.00 72 1022.2
20200220225732 10 163 0.0 3.2 0.00 0.00 0.00 72 1022.3
20200220225205 10 163 0.0 4.8 0.00 0.00 0.00 72 1022.2
20200220224704 10 163 1.6 4.8 0.00 0.00 0.00 71 1022.2
20200220224204 10 163 1.6 3.2 0.00 0.00 0.00 75 1022.3
20200220223704 10 163 0.0 3.2 0.00 0.00 0.00 70 1022.4
20200220223204 10 163 0.0 3.2 0.00 0.00 0.00 71 1022.3
20200220222704 9 163 0.0 4.8 0.00 0.00 0.00 75 1022.2
20200220222204 9 163 1.6 4.8 0.00 0.00 0.00 75 1022.3
20200220221704 9 163 1.6 4.8 0.00 0.00 0.00 75 1022.4
20200220221204 9 163 1.6 3.2 0.00 0.00 0.00 75 1022.4
20200220220703 9 163 1.6 4.8 0.00 0.00 0.00 76 1022.5
20200220220204 9 163 1.6 4.8 0.00 0.00 0.00 75 1022.5
20200220215704 9 163 0.0 3.2 0.00 0.00 0.00 74 1022.6
20200220215205 9 163 0.0 3.2 0.00 0.00 0.00 72 1022.6
20200220214704 9 163 0.0 3.2 0.00 0.00 0.00 73 1022.7
20200220214204 9 163 0.0 3.2 0.00 0.00 0.00 69 1022.6
20200220213704 9 163 0.0 4.8 0.00 0.00 0.00 71 1022.6
20200220213204 9 163 0.0 4.8 0.00 0.00 0.00 70 1022.7
20200220212704 9 163 1.6 4.8 0.00 0.00 0.00 68 1022.7
20200220212205 10 163 1.6 6.4 0.00 0.00 0.00 68 1022.8
20200220211705 10 163 1.6 6.4 0.00 0.00 0.00 65 1022.8
20200220211204 10 163 1.6 6.4 0.00 0.00 0.00 59 1022.8
20200220210704 10 153 0.0 0.0 0.00 0.00 0.00 51 1022.9
20200220210204 10 154 0.0 0.0 0.00 0.00 0.00 48 1022.8
20200220205703 10 154 0.0 0.0 0.00 0.00 0.00 48 1022.9
20200220205205 10 154 0.0 0.0 0.00 0.00 0.00 48 1022.9
20200220203204 9 154 0.0 0.0 0.00 0.00 0.00 52 1023.1
20200220202704 8 154 0.0 0.0 0.00 0.00 0.00 53 1023.2
20200220202204 8 154 0.0 0.0 0.00 0.00 0.00 63 1023.2
20200220201704 8 154 0.0 0.0 0.00 0.00 0.00 71 1023.3
20200220201204 8 154 0.0 0.0 0.00 0.00 0.00 71 1023.4
20200220200703 8 154 0.0 0.0 0.00 0.00 0.00 73 1023.5
20200220200204 7 154 0.0 0.0 0.00 0.00 0.00 71 1023.6
20200220195704 7 154 0.0 0.0 0.00 0.00 0.00 70 1023.6
20200220195204 7 154 0.0 0.0 0.00 0.00 0.00 74 1023.6
20200220194703 7 154 0.0 0.0 0.00 0.00 0.00 73 1023.6
20200220194204 7 154 0.0 0.0 0.00 0.00 0.00 77 1023.6
20200220193704 7 154 0.0 0.0 0.00 0.00 0.00 76 1023.6
20200220193204 7 154 0.0 0.0 0.00 0.00 0.00 77 1023.7
20200220192704 7 154 0.0 0.0 0.00 0.00 0.00 75 1023.6
20200220192204 7 154 0.0 0.0 0.00 0.00 0.00 78 1023.6
20200220191704 7 154 0.0 0.0 0.00 0.00 0.00 77 1023.6
20200220191204 6 154 0.0 0.0 0.00 0.00 0.00 79 1023.6
20200220190704 6 154 0.0 0.0 0.00 0.00 0.00 81 1023.5
20200220190204 6 154 0.0 0.0 0.00 0.00 0.00 80 1023.6
20200220185704 6 154 0.0 0.0 0.00 0.00 0.00 80 1023.6
20200220185205 6 154 0.0 0.0 0.00 0.00 0.00 80 1023.7
20200220184704 6 154 0.0 0.0 0.00 0.00 0.00 80 1023.7
20200220184204 6 154 0.0 0.0 0.00 0.00 0.00 79 1023.7
20200220183704 6 130 0.0 0.0 0.00 0.00 0.00 80 1023.7
20200220183204 6 130 0.0 0.0 0.00 0.00 0.00 80 1023.7
20200220182704 6 130 0.0 0.0 0.00 0.00 0.00 81 1023.7
20200220182204 5 131 0.0 0.0 0.00 0.00 0.00 80 1023.8
20200220181704 5 130 0.0 0.0 0.00 0.00 0.00 81 1023.8
20200220181204 5 131 0.0 0.0 0.00 0.00 0.00 81 1023.8
20200220180703 5 130 0.0 0.0 0.00 0.00 0.00 80 1023.8
20200220180204 5 130 0.0 0.0 0.00 0.00 0.00 81 1023.8
20200220175704 5 131 0.0 0.0 0.00 0.00 0.00 80 1023.8
20200220175204 5 131 0.0 0.0 0.00 0.00 0.00 79 1023.8
20200220174704 5 131 0.0 0.0 0.00 0.00 0.00 80 1023.8
20200220174205 5 131 0.0 0.0 0.00 0.00 0.00 79 1023.9
20200220173704 5 131 0.0 0.0 0.00 0.00 0.00 79 1023.9
20200220173204 5 131 0.0 0.0 0.00 0.00 0.00 79 1023.8
20200220172704 5 138 0.0 0.0 0.00 0.00 0.00 78 1023.9
20200220172204 5 139 0.0 0.0 0.00 0.00 0.00 81 1023.8
20200220171704 4 140 0.0 0.0 0.00 0.00 0.00 85 1023.9
20200220171205 3 125 0.0 0.0 0.00 0.00 0.00 88 1023.8
20200220170703 2 91 0.0 0.0 0.00 0.00 0.00 91 1023.8
20200220170204 1 302 0.0 0.0 0.00 0.00 0.00 90 1023.8
20200220165704 1 301 0.0 0.0 0.00 0.00 0.00 90 1023.8
20200220165205 1 301 0.0 0.0 0.00 0.00 0.00 90 1023.7
20200220164704 1 301 0.0 0.0 0.00 0.00 0.00 91 1023.7
20200220164206 1 301 0.0 0.0 0.00 0.00 0.00 90 1023.7
20200220163704 1 301 0.0 0.0 0.00 0.00 0.00 91 1023.6
20200220163204 1 301 0.0 0.0 0.00 0.00 0.00 91 1023.6
20200220162703 0 301 0.0 0.0 0.00 0.00 0.00 90 1023.5
20200220162204 0 301 0.0 0.0 0.00 0.00 0.00 91 1023.5
20200220161704 0 301 0.0 0.0 0.00 0.00 0.00 91 1023.5
20200220161204 0 301 0.0 0.0 0.00 0.00 0.00 92 1023.6
20200220160704 0 301 0.0 0.0 0.00 0.00 0.00 92 1023.6
20200220160204 0 301 0.0 0.0 0.00 0.00 0.00 91 1023.6
20200220155704 0 301 0.0 0.0 0.00 0.00 0.00 92 1023.5
20200220155205 0 301 0.0 0.0 0.00 0.00 0.00 92 1023.4
20200220154704 0 301 0.0 0.0 0.00 0.00 0.00 92 1023.5
20200220154204 0 301 0.0 0.0 0.00 0.00 0.00 92 1023.4
20200220153704 0 301 0.0 0.0 0.00 0.00 0.00 92 1023.3
20200220153204 0 301 0.0 0.0 0.00 0.00 0.00 92 1023.2
20200220152707 0 301 0.0 0.0 0.00 0.00 0.00 91 1023.1
20200220152204 0 301 0.0 0.0 0.00 0.00 0.00 90 1023.0
20200220151703 0 301 0.0 0.0 0.00 0.00 0.00 89 1022.9
20200220151205 0 301 0.0 0.0 0.00 0.00 0.00 90 1022.8
20200220150704 0 301 0.0 0.0 0.00 0.00 0.00 90 1022.8
20200220150205 0 301 0.0 0.0 0.00 0.00 0.00 91 1022.8
20200220145704 0 301 0.0 0.0 0.00 0.00 0.00 91 1022.8
20200220145204 0 301 0.0 0.0 0.00 0.00 0.00 91 1022.8
20200220144704 0 301 0.0 0.0 0.00 0.00 0.00 92 1022.9
20200220144205 0 301 0.0 0.0 0.00 0.00 0.00 92 1022.9
20200220143704 0 301 0.0 0.0 0.00 0.00 0.00 92 1023.1
20200220143204 0 301 0.0 0.0 0.00 0.00 0.00 92 1023.0
20200220142704 0 301 0.0 0.0 0.00 0.00 0.00 92 1023.1
20200220142205 0 301 0.0 0.0 0.00 0.00 0.00 92 1023.1
20200220141703 0 301 0.0 0.0 0.00 0.00 0.00 92 1023.0
20200220141204 0 301 0.0 0.0 0.00 0.00 0.00 92 1023.0
20200220140705 0 301 0.0 0.0 0.00 0.00 0.00 92 1023.1
20200220140204 0 301 0.0 0.0 0.00 0.00 0.00 92 1023.0
20200220135704 0 301 0.0 0.0 0.00 0.00 0.00 92 1023.0
20200220135204 0 301 0.0 0.0 0.00 0.00 0.00 92 1023.0
20200220134704 0 301 0.0 0.0 0.00 0.00 0.00 91 1023.0
20200220134205 0 301 0.0 0.0 0.00 0.00 0.00 91 1022.9
20200220133704 0 301 0.0 0.0 0.00 0.00 0.00 91 1022.9
20200220133205 0 301 0.0 0.0 0.00 0.00 0.00 90 1022.9
20200220132704 0 301 0.0 0.0 0.00 0.00 0.00 91 1023.0
20200220132204 0 301 0.0 0.0 0.00 0.00 0.00 90 1022.9
20200220131704 0 301 0.0 0.0 0.00 0.00 0.00 90 1023.0
20200220131204 0 301 0.0 0.0 0.00 0.00 0.00 89 1023.0
20200220130704 0 301 0.0 0.0 0.00 0.00 0.00 89 1023.0
20200220130204 0 301 0.0 0.0 0.00 0.00 0.00 90 1023.1
20200220125704 0 301 0.0 0.0 0.00 0.00 0.00 90 1023.1
20200220125204 0 301 0.0 0.0 0.00 0.00 0.00 89 1023.0
20200220124704 0 301 0.0 0.0 0.00 0.00 0.00 90 1023.0
20200220124204 0 301 0.0 0.0 0.00 0.00 0.00 90 1023.1
20200220123703 0 301 0.0 0.0 0.00 0.00 0.00 89 1023.0
20200220123204 0 301 0.0 0.0 0.00 0.00 0.00 89 1023.0
20200220122704 0 301 0.0 0.0 0.00 0.00 0.00 89 1023.0
20200220122204 0 301 0.0 0.0 0.00 0.00 0.00 88 1023.0
20200220121704 0 301 0.0 0.0 0.00 0.00 0.00 89 1023.0
20200220121204 0 301 0.0 0.0 0.00 0.00 0.00 88 1023.1
20200220120703 0 301 0.0 0.0 0.00 0.00 0.00 89 1023.1
20200220120203 0 301 0.0 0.0 0.00 0.00 0.00 89 1023.0
20200220115704 0 301 0.0 0.0 0.00 0.00 0.00 89 1023.0
20200220115204 0 301 0.0 0.0 0.00 0.00 0.00 90 1023.0
20200220114704 0 301 0.0 0.0 0.00 0.00 0.00 89 1023.0
20200220114204 0 301 0.0 0.0 0.00 0.00 0.00 89 1023.2
20200220113703 0 301 0.0 0.0 0.00 0.00 0.00 89 1023.2
20200220113204 0 301 0.0 0.0 0.00 0.00 0.00 88 1023.2
20200220112704 0 301 0.0 0.0 0.00 0.00 0.00 88 1023.2
20200220112204 0 301 0.0 0.0 0.00 0.00 0.00 89 1023.2
20200220111704 0 301 0.0 0.0 0.00 0.00 0.00 88 1023.2
20200220111204 0 301 0.0 0.0 0.00 0.00 0.00 88 1023.1
20200220110703 0 301 0.0 0.0 0.00 0.00 0.00 88 1023.1
20200220110204 0 301 0.0 0.0 0.00 0.00 0.00 88 1023.2
20200220105703 0 301 0.0 0.0 0.00 0.00 0.00 89 1023.3
20200220105204 0 301 0.0 0.0 0.00 0.00 0.00 89 1023.3
20200220104703 0 301 0.0 0.0 0.00 0.00 0.00 89 1023.3
20200220104204 0 301 0.0 0.0 0.00 0.00 0.00 89 1023.2
20200220103704 0 301 0.0 0.0 0.00 0.00 0.00 89 1023.3
20200220103204 0 301 0.0 0.0 0.00 0.00 0.00 88 1023.4
20200220102704 1 301 0.0 0.0 0.00 0.00 0.00 88 1023.4
20200220102204 1 301 0.0 4.8 0.00 0.00 0.00 88 1023.4
20200220101704 1 301 0.0 4.8 0.00 0.00 0.00 88 1023.4
20200220101204 1 301 0.0 4.8 0.00 0.00 0.00 87 1023.4
20200220100704 1 301 1.6 4.8 0.00 0.00 0.00 85 1023.4
20200220100204 1 301 3.2 4.8 0.00 0.00 0.00 87 1023.4
20200220095704 1 301 1.6 4.8 0.00 0.00 0.00 88 1023.4
20200220095204 1 301 1.6 4.8 0.00 0.00 0.00 88 1023.4
20200220094704 1 301 1.6 4.8 0.00 0.00 0.00 88 1023.3
20200220094204 1 301 3.2 4.8 0.00 0.00 0.00 87 1023.3
20200220093703 1 301 1.6 4.8 0.00 0.00 0.00 86 1023.3
20200220093204 1 301 3.2 4.8 0.00 0.00 0.00 85 1023.3
20200220092703 1 301 3.2 4.8 0.00 0.00 0.00 85 1023.3
20200220092204 1 301 3.2 4.8 0.00 0.00 0.00 85 1023.3
20200220091703 1 301 3.2 4.8 0.00 0.00 0.00 84 1023.3
20200220091203 1 301 3.2 4.8 0.00 0.00 0.00 85 1023.4
20200220090704 1 301 3.2 4.8 0.00 0.00 0.00 84 1023.4
20200220090204 1 301 1.6 4.8 0.00 0.00 0.00 83 1023.4
20200220085704 1 301 0.0 0.0 0.00 0.00 0.00 84 1023.4
20200220085203 1 301 0.0 0.0 0.00 0.00 0.00 83 1023.4
20200220084704 1 301 0.0 0.0 0.00 0.00 0.00 84 1023.3
20200220084205 1 301 0.0 3.2 0.00 0.00 0.00 83 1023.4
20200220083704 1 301 1.6 3.2 0.00 0.00 0.00 82 1023.4
20200220083204 1 301 1.6 4.8 0.00 0.00 0.00 80 1023.4
20200220082704 1 301 1.6 4.8 0.00 0.00 0.00 78 1023.4
20200220082204 1 301 0.0 3.2 0.00 0.00 0.00 81 1023.3
20200220081704 2 301 0.0 3.2 0.00 0.00 0.00 82 1023.3
20200220081204 2 301 0.0 3.2 0.00 0.00 0.00 80 1023.2
20200220080704 2 301 1.6 3.2 0.00 0.00 0.00 82 1023.2
20200220080204 2 301 1.6 4.8 0.00 0.00 0.00 82 1023.3
20200220075704 2 301 1.6 4.8 0.00 0.00 0.00 82 1023.3
20200220075204 2 301 1.6 4.8 0.00 0.00 0.00 82 1023.3
20200220074704 2 301 1.6 4.8 0.00 0.00 0.00 80 1023.3
20200220074204 2 301 1.6 4.8 0.00 0.00 0.00 83 1023.3
20200220073703 2 301 1.6 4.8 0.00 0.00 0.00 81 1023.3
20200220072204 2 301 0.0 4.8 0.00 0.00 0.00 81 1023.2
20200220071704 2 301 1.6 4.8 0.00 0.00 0.00 82 1023.2
20200220071203 2 301 1.6 4.8 0.00 0.00 0.00 83 1023.1
20200220070704 2 301 1.6 4.8 0.00 0.00 0.00 82 1023.1
20200220070204 2 308 3.2 4.8 0.00 0.00 0.00 83 1023.1
20200220065704 2 295 1.6 4.8 0.00 0.00 0.00 81 1023.2
20200220065204 2 295 3.2 4.8 0.00 0.00 0.00 80 1023.2
20200220064703 2 295 3.2 4.8 0.00 0.00 0.00 82 1023.2
20200220064204 2 295 3.2 6.4 0.00 0.00 0.00 81 1023.2
20200220063703 3 295 3.2 6.4 0.00 0.00 0.00 82 1023.0
20200220063204 3 295 3.2 6.4 0.00 0.00 0.00 80 1023.0
20200220062704 3 295 1.6 6.4 0.00 0.00 0.00 77 1023.0
20200220062205 3 295 3.2 6.4 0.00 0.00 0.00 78 1022.9
20200220061704 3 294 3.2 6.4 0.00 0.00 0.00 77 1022.9
20200220061204 3 294 3.2 6.4 0.00 0.00 0.00 77 1022.8
20200220060704 3 293 3.2 6.4 0.00 0.00 0.00 75 1022.8
20200220060204 3 292 3.2 6.4 0.00 0.00 0.00 78 1022.8
20200220055704 3 290 4.8 6.4 0.00 0.00 0.00 76 1022.9
20200220055204 3 290 4.8 6.4 0.00 0.00 0.00 76 1022.8
20200220054704 3 290 4.8 6.4 0.00 0.00 0.00 74 1022.8
20200220054204 3 281 4.8 6.4 0.00 0.00 0.00 75 1022.7
20200220053704 3 296 4.8 6.4 0.00 0.00 0.00 74 1022.7
20200220053205 4 298 3.2 6.4 0.00 0.00 0.00 74 1022.6
20200220052704 4 291 3.2 6.4 0.00 0.00 0.00 75 1022.5
20200220052205 4 297 3.2 6.4 0.00 0.00 0.00 74 1022.5
20200220051703 4 288 3.2 6.4 0.00 0.00 0.00 76 1022.5
20200220051204 4 297 3.2 6.4 0.00 0.00 0.00 75 1022.5
20200220050704 4 288 3.2 6.4 0.00 0.00 0.00 75 1022.5
20200220050204 4 286 3.2 8.0 0.00 0.00 0.00 75 1022.5
20200220045704 4 285 4.8 8.0 0.00 0.00 0.00 74 1022.5
20200220045204 4 295 4.8 8.0 0.00 0.00 0.00 74 1022.4
20200220044703 4 297 4.8 6.4 0.00 0.00 0.00 73 1022.5
20200220044204 4 296 4.8 8.0 0.00 0.00 0.00 72 1022.6
20200220043704 5 294 4.8 8.0 0.00 0.00 0.00 71 1022.5
20200220043204 5 294 3.2 8.0 0.00 0.00 0.00 73 1022.5
20200220042704 5 288 4.8 8.0 0.00 0.00 0.00 71 1022.5
20200220042204 5 284 4.8 8.0 0.00 0.00 0.00 73 1022.4
20200220041703 5 289 3.2 8.0 0.00 0.00 0.00 73 1022.4
20200220041204 5 288 3.2 8.0 0.00 0.00 0.00 73 1022.3
20200220040704 5 287 4.8 6.4 0.00 0.00 0.00 72 1022.3
20200220040204 5 286 4.8 6.4 0.00 0.00 0.00 73 1022.3
20200220035704 5 284 4.8 6.4 0.00 0.00 0.00 73 1022.3
20200220035203 5 294 4.8 6.4 0.00 0.00 0.00 72 1022.3
20200220034704 5 299 4.8 6.4 0.00 0.00 0.00 70 1022.4
20200220034204 5 294 4.8 6.4 0.00 0.00 0.00 73 1022.4
20200220033704 5 298 3.2 6.4 0.00 0.00 0.00 73 1022.4
20200220033204 5 287 1.6 4.8 0.00 0.00 0.00 71 1022.4
20200220032704 5 292 1.6 3.2 0.00 0.00 0.00 69 1022.4
20200220032204 5 292 0.0 0.0 0.00 0.00 0.00 71 1022.4
20200220031704 5 292 0.0 0.0 0.00 0.00 0.00 72 1022.3
20200220031204 5 292 0.0 0.0 0.00 0.00 0.00 70 1022.3
20200220030704 5 292 0.0 0.0 0.00 0.00 0.00 67 1022.2
20200220030204 5 292 0.0 0.0 0.00 0.00 0.00 71 1022.2
20200220025704 5 292 0.0 0.0 0.00 0.00 0.00 70 1022.2
20200220025204 6 292 0.0 3.2 0.00 0.00 0.00 67 1022.2
20200220024704 6 292 0.0 4.8 0.00 0.00 0.00 67 1022.2
20200220024204 6 292 1.6 4.8 0.00 0.00 0.00 64 1022.2
20200220023704 6 292 3.2 4.8 0.00 0.00 0.00 67 1022.3
20200220023204 6 292 3.2 6.4 0.00 0.00 0.00 67 1022.2
20200220022704 6 292 3.2 6.4 0.00 0.00 0.00 67 1022.2
20200220022204 6 289 3.2 8.0 0.00 0.00 0.00 66 1022.1
20200220021704 6 268 3.2 8.0 0.00 0.00 0.00 64 1022.2
20200220021204 7 294 4.8 8.0 0.00 0.00 0.00 64 1022.1
20200220020704 7 278 4.8 8.0 0.00 0.00 0.00 61 1022.2
20200220020204 7 287 4.8 8.0 0.00 0.00 0.00 61 1022.1
20200220015704 7 300 4.8 8.0 0.00 0.00 0.00 63 1022.1
20200220015203 7 294 4.8 6.4 0.00 0.00 0.00 59 1022.1
20200220014704 7 292 4.8 6.4 0.00 0.00 0.00 62 1022.0
20200220014204 7 279 4.8 6.4 0.00 0.00 0.00 58 1022.0
20200220013704 7 302 3.2 6.4 0.00 0.00 0.00 56 1022.0
20200220013204 7 293 1.6 4.8 0.00 0.00 0.00 63 1022.0
20200220012704 8 293 0.0 0.0 0.00 0.00 0.00 61 1022.0